White Rock, British Columbia

5:22 AM PDT on April 24, 2017 (GMT -0700)
White Rock

Weather History for CWWK - November, 2012

Change the Weather History Date:

Sunday, November 4, 2012

  Actual Average Record
Temperature  
Mean Temperature 56 °F -  
Max Temperature 61 °F - - ()
Min Temperature 52 °F - - ()
Degree Days  
Heating Degree Days 8    
Growing Degree Days 6 (Base 50)    
Moisture  
Dew Point 53 °F    
Average Humidity 90    
Maximum Humidity 93    
Minimum Humidity 81    
Precipitation  
Precipitation 0.16 in - - ()
Sea Level Pressure  
Sea Level Pressure 30.19 in    
Wind  
Wind Speed 4 mph ()    
Max Wind Speed 10 mph    
Max Gust Speed 21 mph    
T = Trace of Precipitation, MM = Missing Value Source: Averaged Metar Reports

Daily Weather History Graph

Daily Weather History Graph

Search for Another Location

Airport or City:

Trip Planner

Search our weather history database for the weather conditions in past years. The results will help you decide how hot, cold, wet, or windy it might be!

Date:

Astronomy

Nov. 04, 2012 Rise Set
Actual Time 7:04 AM PST 4:44 PM PST
Civil Twilight 6:30 AM PST 5:18 PM PST
Nautical Twilight 5:52 AM PST 5:55 PM PST
Astronomical Twilight 5:16 AM PST 6:32 PM PST
Moon 9:23 PM PST (11/4) 11:56 AM PST (11/4)
Length of Visible Light 10h 47m
Length of Day
9h 40m
Waning Gibbous, 71% of the Moon is Illuminated
Nov 4
Waning Gibbous
Nov 6
Last Quarter
Nov 13
New
Nov 20
First Quarter
Nov 28
Full

Hourly Weather History & Observations

Time (PST) Temp. Dew Point Humidity Pressure Visibility Wind Dir Wind Speed Gust Speed Precip Events Conditions
12:00 AM 52.7 °F 50.7 °F 93% 30.18 in - NE 1.2 mph - N/A   Unknown
1:00 AM 52.7 °F 50.7 °F 93% 30.18 in - North 4.6 mph - N/A   Unknown
1:00 AM 53.1 °F 50.9 °F 92% 30.19 in - North 2.3 mph - N/A   Unknown
2:00 AM 53.4 °F 51.4 °F 93% 30.21 in - ENE 2.3 mph - 0.01 in   Unknown
3:00 AM 53.4 °F 51.4 °F 93% 30.21 in - East 2.3 mph - 0.02 in   Unknown
4:00 AM 53 °F 51 °F 92% 30.21 in - NNE 3.5 mph - -  
4:00 AM 53.2 °F 51.3 °F 93% 30.21 in - NNE 3.5 mph - 0.02 in   Unknown
5:00 AM 53.1 °F 51.1 °F 93% 30.22 in - NNE 3.5 mph - 0.02 in   Unknown
6:00 AM 53.2 °F 51.3 °F 93% 30.20 in - NNE 3.5 mph - 0.01 in   Unknown
7:00 AM 53.2 °F 51.3 °F 93% 30.20 in - NNE 5.8 mph - N/A   Unknown
8:00 AM 53.6 °F 51.4 °F 92% 30.21 in - NNE 4.6 mph - N/A   Unknown
9:00 AM 53.8 °F 51.6 °F 92% 30.21 in - NNE 4.6 mph - N/A   Unknown
10:00 AM 55 °F 53 °F 88% 30.21 in - NE 4.6 mph - -  
10:00 AM 54.7 °F 52.5 °F 92% 30.21 in - NE 4.6 mph - N/A   Unknown
11:00 AM 54.9 °F 52.7 °F 92% 30.19 in - NE 3.5 mph - N/A   Unknown
12:00 PM 55.8 °F 53.4 °F 92% 30.19 in - NNE 3.5 mph - N/A   Unknown
1:00 PM 56.5 °F 54.0 °F 91% 30.17 in - NNE 3.5 mph - N/A   Unknown
2:00 PM 57.9 °F 55.2 °F 91% 30.15 in - ENE 2.3 mph - N/A   Unknown
3:00 PM 61.7 °F 56.7 °F 84% 30.14 in - SSE 5.8 mph - 0.01 in   Unknown
4:00 PM 61 °F 57 °F 81% 30.14 in - SSE 10.4 mph - -  
4:00 PM 61.3 °F 56.7 °F 85% 30.14 in - SSE 10.4 mph 19.6 mph 0.03 in   Unknown
5:00 PM 61.0 °F 57.0 °F 87% 30.15 in - South 10.4 mph 20.7 mph 0.05 in   Unknown
6:00 PM 59.9 °F 56.1 °F 87% 30.19 in - South 9.2 mph 19.6 mph 0.07 in   Unknown
7:00 PM 59.5 °F 56.3 °F 89% 30.21 in - South 6.9 mph - 0.02 in   Unknown
8:00 PM 58.3 °F 54.9 °F 88% 30.19 in - SSE 6.9 mph - N/A   Unknown
9:00 PM 57.7 °F 54.0 °F 87% 30.21 in - South 5.8 mph - N/A   Unknown
10:00 PM 57 °F 53 °F 84% 30.22 in - South 3.5 mph - -  
10:00 PM 57.0 °F 53.4 °F 88% 30.22 in - South 3.5 mph - N/A   Unknown